Location: McFarlands Corners
(41.4117°N, 81.3382°W)
Time: 17:22:31
(UTC+00:00)

Vanguard 1 Rocket - Pass Details

Date: 23 February 2026
Orbit: 653 x 4214 km, 34.3° (Epoch: 8 March)

Event Time Altitude Azimuth Distance (km) Brightness Sun altitude
Rises 17:37:21 0° 238° (WSW) 3,606 10.8 39.0°
Reaches altitude 10° 17:39:31 10° 232° (SW) 2,901 10.6 39.0°
Maximum altitude 17:46:20 49° 159° (SSE) 1,942 10.8 38.9°
Drops below altitude 10° 17:59:12 10° 90° (E) 5,335 11.4 38.7°
Sets 18:04:46 0° 87° (E) 6,936 11.8 38.6°
